User: anonymous   Login
Location: Unspecified
(0.0000°N, 0.0000°E)
Time: 16:25:21
(UTC+00:00)
Language:

CICERO 10 - Orbit

View from above orbital plane
View from above orbital plane
View from above satellite
View from above satellite

Ground track
Ground track

The orbit data is extracted from the following two-line orbital elements,

1 43690U 18088A   21333.71650058  .00003481  00000-0  15043-3 0  9993
2 43690  85.0370  88.5642 0015142 155.3120 204.8850 15.21991611169357
Epoch (UTC): 29 November 2021 17:11:45
Eccentricity: 0.0015142
inclination: 85.0370°
perigee height: 489 km
apogee height: 510 km
right ascension of ascending node: 88.5642°
argument of perigee: 155.3120°
revolutions per day: 15.21991611
mean anomaly at epoch: 204.8850°
orbit number at epoch: 16935

The dashed part of the orbit path shows where the satellite is in the earth's shadow,  

DLR